Time,TemperatureF,DewpointF,PressureIn,WindDirection,WindDirectionDegrees,WindSpeedMPH,WindSpeedGustMPH,Humidity,HourlyPrecipIn,Conditions,Clouds,dailyrainin,SoftwareType,DateUTC
2013-06-30 00:08:00,66.2,65.0,29.67,NNE,15,1.0,7.0,95,0.00,,,0.43,weatherlink.com 1.10,2013-06-30 04:08:00,
2013-06-30 00:23:00,66.1,65.0,29.67,NNE,30,4.0,6.0,95,0.00,,,0.43,weatherlink.com 1.10,2013-06-30 04:23:00,
2013-06-30 00:39:00,66.0,65.0,29.68,NNE,19,1.0,6.0,95,0.00,,,0.00,weatherlink.com 1.10,2013-06-30 04:39:00,
2013-06-30 00:54:00,65.8,64.0,29.68,ENE,74,1.0,6.0,95,0.00,,,0.00,weatherlink.com 1.10,2013-06-30 04:54:00,
2013-06-30 01:09:00,65.7,65.0,29.68,NE,56,1.0,5.0,96,0.00,,,0.00,weatherlink.com 1.10,2013-06-30 05:09:00,
2013-06-30 01:25:00,65.7,65.0,29.68,NE,39,2.0,5.0,96,0.00,,,0.00,weatherlink.com 1.10,2013-06-30 05:25:00,
2013-06-30 01:40:00,65.7,65.0,29.68,NE,36,3.0,6.0,96,0.00,,,0.00,weatherlink.com 1.10,2013-06-30 05:40:00,
2013-06-30 01:55:00,65.7,65.0,29.69,NE,34,4.0,5.0,96,0.00,,,0.00,weatherlink.com 1.10,2013-06-30 05:55:00,
2013-06-30 02:10:00,65.7,65.0,29.69,NNE,30,4.0,7.0,96,0.00,,,0.00,weatherlink.com 1.10,2013-06-30 06:10:00,
2013-06-30 02:26:00,65.7,65.0,29.68,NNE,29,4.0,5.0,96,0.00,,,0.00,weatherlink.com 1.10,2013-06-30 06:26:00,
2013-06-30 02:41:00,65.7,65.0,29.69,NNE,31,2.0,5.0,96,0.00,,,0.00,weatherlink.com 1.10,2013-06-30 06:41:00,
2013-06-30 02:56:00,65.9,65.0,29.68,NNE,17,3.0,6.0,97,0.00,,,0.00,weatherlink.com 1.10,2013-06-30 06:56:00,
2013-06-30 03:11:00,65.9,65.0,29.68,NNE,32,3.0,7.0,97,0.01,,,0.01,weatherlink.com 1.10,2013-06-30 07:11:00,
2013-06-30 03:26:00,65.8,65.0,29.68,ENE,59,4.0,10.0,97,0.05,,,0.05,weatherlink.com 1.10,2013-06-30 07:26:00,
2013-06-30 03:43:00,65.3,64.0,29.68,NE,47,7.0,14.0,96,0.12,,,0.12,weatherlink.com 1.10,2013-06-30 07:43:00,
2013-06-30 03:58:00,64.7,64.0,29.69,ENE,67,10.0,19.0,96,0.18,,,0.18,weatherlink.com 1.10,2013-06-30 07:58:00,
2013-06-30 04:13:00,64.1,63.0,29.68,ENE,69,9.0,13.0,96,0.26,,,0.27,weatherlink.com 1.10,2013-06-30 08:13:00,
2013-06-30 04:27:00,63.8,63.0,29.69,ENE,61,7.0,10.0,97,0.21,,,0.27,weatherlink.com 1.10,2013-06-30 08:27:00,
2013-06-30 04:43:00,63.7,63.0,29.70,NNE,28,2.0,9.0,97,0.16,,,0.28,weatherlink.com 1.10,2013-06-30 08:43:00,
2013-06-30 04:58:00,63.5,63.0,29.70,NE,49,6.0,10.0,97,0.10,,,0.29,weatherlink.com 1.10,2013-06-30 08:58:00,
2013-06-30 05:13:00,63.2,62.0,29.70,ENE,73,5.0,8.0,97,0.04,,,0.31,weatherlink.com 1.10,2013-06-30 09:13:00,
2013-06-30 05:28:00,63.0,62.0,29.70,ENE,78,5.0,10.0,97,0.07,,,0.34,weatherlink.com 1.10,2013-06-30 09:28:00,
2013-06-30 05:44:00,62.5,62.0,29.71,ENE,59,2.0,9.0,97,0.07,,,0.35,weatherlink.com 1.10,2013-06-30 09:44:00,
2013-06-30 05:59:00,62.2,61.0,29.71,NNE,31,5.0,9.0,96,0.07,,,0.36,weatherlink.com 1.10,2013-06-30 09:59:00,
2013-06-30 06:14:00,62.1,61.0,29.71,North,11,3.0,8.0,96,0.05,,,0.36,weatherlink.com 1.10,2013-06-30 10:14:00,
2013-06-30 06:30:00,62.1,61.0,29.72,ENE,57,2.0,11.0,96,0.02,,,0.36,weatherlink.com 1.10,2013-06-30 10:30:00,
2013-06-30 06:45:00,62.3,61.0,29.72,ENE,58,3.0,9.0,96,0.01,,,0.36,weatherlink.com 1.10,2013-06-30 10:45:00,
2013-06-30 07:00:00,62.6,62.0,29.73,East,81,5.0,8.0,97,0.00,,,0.36,weatherlink.com 1.10,2013-06-30 11:00:00,
2013-06-30 07:15:00,62.9,62.0,29.73,NE,46,2.0,6.0,96,0.00,,,0.36,weatherlink.com 1.10,2013-06-30 11:15:00,
2013-06-30 07:30:00,63.0,62.0,29.74,East,80,3.0,7.0,96,0.00,,,0.36,weatherlink.com 1.10,2013-06-30 11:30:00,
2013-06-30 07:46:00,63.0,62.0,29.75,SE,126,1.0,5.0,96,0.02,,,0.38,weatherlink.com 1.10,2013-06-30 11:46:00,
2013-06-30 08:02:00,63.0,62.0,29.75,NE,47,3.0,10.0,97,0.18,,,0.54,weatherlink.com 1.10,2013-06-30 12:02:00,
2013-06-30 08:16:00,63.1,62.0,29.75,NE,45,3.0,7.0,97,0.21,,,0.57,weatherlink.com 1.10,2013-06-30 12:16:00,
2013-06-30 08:33:00,63.2,62.0,29.75,ENE,58,3.0,7.0,97,0.25,,,0.61,weatherlink.com 1.10,2013-06-30 12:33:00,
2013-06-30 08:48:00,63.3,63.0,29.76,NE,36,6.0,9.0,97,0.22,,,0.65,weatherlink.com 1.10,2013-06-30 12:48:00,
2013-06-30 09:03:00,63.2,62.0,29.76,NE,51,4.0,9.0,97,0.14,,,0.68,weatherlink.com 1.10,2013-06-30 13:03:00,
2013-06-30 09:17:00,63.0,63.0,29.77,NNE,16,7.0,13.0,98,0.12,,,0.69,weatherlink.com 1.10,2013-06-30 13:17:00,
2013-06-30 09:33:00,63.0,63.0,29.76,North,360,7.0,10.0,98,0.08,,,0.69,weatherlink.com 1.10,2013-06-30 13:33:00,
2013-06-30 09:49:00,62.9,62.0,29.77,NE,41,4.0,9.0,98,0.06,,,0.71,weatherlink.com 1.10,2013-06-30 13:49:00,
2013-06-30 10:03:00,62.8,62.0,29.78,NE,54,7.0,10.0,98,0.06,,,0.74,weatherlink.com 1.10,2013-06-30 14:03:00,
2013-06-30 10:18:00,62.9,62.0,29.77,NE,42,7.0,9.0,98,0.12,,,0.81,weatherlink.com 1.10,2013-06-30 14:18:00,
2013-06-30 10:34:00,62.9,62.0,29.78,ENE,70,3.0,10.0,98,0.17,,,0.86,weatherlink.com 1.10,2013-06-30 14:34:00,
2013-06-30 10:49:00,62.9,62.0,29.79,ENE,69,4.0,8.0,98,0.20,,,0.91,weatherlink.com 1.10,2013-06-30 14:49:00,
2013-06-30 11:04:00,62.9,62.0,29.79,NE,52,2.0,8.0,98,0.18,,,0.93,weatherlink.com 1.10,2013-06-30 15:04:00,
2013-06-30 11:20:00,63.2,63.0,29.80,NE,46,4.0,10.0,98,0.13,,,0.95,weatherlink.com 1.10,2013-06-30 15:20:00,
2013-06-30 11:35:00,63.7,64.0,29.80,NE,44,9.0,11.0,99,0.08,,,0.95,weatherlink.com 1.10,2013-06-30 15:35:00,
2013-06-30 11:50:00,64.5,64.0,29.80,ENE,63,10.0,12.0,99,0.04,,,0.95,weatherlink.com 1.10,2013-06-30 15:50:00,
2013-06-30 12:06:00,65.4,65.0,29.81,North,9,7.0,9.0,99,0.03,,,0.96,weatherlink.com 1.10,2013-06-30 16:06:00,
2013-06-30 12:21:00,64.4,64.0,29.81,NNE,28,5.0,13.0,97,0.11,,,1.06,weatherlink.com 1.10,2013-06-30 16:21:00,
2013-06-30 12:36:00,64.1,63.0,29.81,NNE,17,3.0,13.0,97,0.14,,,1.09,weatherlink.com 1.10,2013-06-30 16:36:00,
2013-06-30 12:51:00,64.3,64.0,29.81,NE,55,3.0,11.0,98,0.15,,,1.10,weatherlink.com 1.10,2013-06-30 16:51:00,
2013-06-30 13:06:00,64.9,64.0,29.81,NE,43,6.0,12.0,97,0.14,,,1.10,weatherlink.com 1.10,2013-06-30 17:06:00,
2013-06-30 13:23:00,66.3,66.0,29.81,NE,40,4.0,11.0,97,0.03,,,1.10,weatherlink.com 1.10,2013-06-30 17:23:00,
2013-06-30 13:38:00,67.6,66.0,29.81,NE,38,4.0,12.0,95,0.01,,,1.10,weatherlink.com 1.10,2013-06-30 17:38:00,
2013-06-30 13:53:00,68.9,67.0,29.81,ENE,59,13.0,17.0,93,0.00,,,1.10,weatherlink.com 1.10,2013-06-30 17:53:00,
2013-06-30 14:08:00,68.7,65.0,29.82,NE,52,7.0,18.0,89,0.00,,,1.10,weatherlink.com 1.10,2013-06-30 18:08:00,
2013-06-30 14:23:00,68.9,66.0,29.82,North,11,3.0,16.0,89,0.00,,,1.10,weatherlink.com 1.10,2013-06-30 18:23:00,
2013-06-30 14:38:00,69.2,66.0,29.82,NE,51,7.0,14.0,89,0.00,,,1.10,weatherlink.com 1.10,2013-06-30 18:38:00,
2013-06-30 14:54:00,69.9,65.0,29.81,NNE,22,6.0,17.0,85,0.00,,,1.10,weatherlink.com 1.10,2013-06-30 18:54:00,
2013-06-30 15:08:00,69.7,64.0,29.81,NE,49,6.0,16.0,83,0.00,,,1.10,weatherlink.com 1.10,2013-06-30 19:08:00,
2013-06-30 15:24:00,69.9,65.0,29.81,ENE,78,3.0,13.0,84,0.00,,,1.10,weatherlink.com 1.10,2013-06-30 19:24:00,
2013-06-30 15:39:00,70.6,66.0,29.81,ENE,76,5.0,12.0,84,0.00,,,1.10,weatherlink.com 1.10,2013-06-30 19:39:00,
2013-06-30 15:54:00,71.0,66.0,29.81,NNE,12,5.0,11.0,83,0.00,,,1.10,weatherlink.com 1.10,2013-06-30 19:54:00,
2013-06-30 16:10:00,72.4,66.0,29.82,North,10,8.0,12.0,81,0.00,,,1.10,weatherlink.com 1.10,2013-06-30 20:10:00,
2013-06-30 16:25:00,71.9,65.0,29.82,NNE,31,5.0,11.0,79,0.00,,,1.10,weatherlink.com 1.10,2013-06-30 20:25:00,
2013-06-30 16:40:00,71.6,65.0,29.82,NNE,14,5.0,10.0,80,0.00,,,1.10,weatherlink.com 1.10,2013-06-30 20:40:00,
2013-06-30 16:56:00,71.3,65.0,29.83,NE,48,7.0,12.0,80,0.00,,,1.10,weatherlink.com 1.10,2013-06-30 20:56:00,
2013-06-30 17:11:00,71.1,64.0,29.83,NE,42,3.0,15.0,78,0.00,,,1.10,weatherlink.com 1.10,2013-06-30 21:11:00,
2013-06-30 17:26:00,70.5,64.0,29.83,NE,44,5.0,13.0,79,0.00,,,1.10,weatherlink.com 1.10,2013-06-30 21:26:00,
2013-06-30 17:41:00,70.5,64.0,29.82,NNE,18,6.0,13.0,80,0.00,,,1.10,weatherlink.com 1.10,2013-06-30 21:41:00,
2013-06-30 17:58:00,71.1,64.0,29.83,East,81,8.0,14.0,79,0.00,,,1.10,weatherlink.com 1.10,2013-06-30 21:58:00,
2013-06-30 18:13:00,71.3,64.0,29.83,NNE,27,8.0,10.0,78,0.00,,,1.10,weatherlink.com 1.10,2013-06-30 22:13:00,
2013-06-30 18:28:00,71.1,64.0,29.82,NE,49,4.0,12.0,78,0.00,,,1.10,weatherlink.com 1.10,2013-06-30 22:28:00,
2013-06-30 18:43:00,71.2,65.0,29.82,NE,52,7.0,11.0,80,0.00,,,1.10,weatherlink.com 1.10,2013-06-30 22:43:00,
2013-06-30 18:58:00,71.2,64.0,29.82,ENE,65,5.0,9.0,78,0.00,,,1.10,weatherlink.com 1.10,2013-06-30 22:58:00,
2013-06-30 19:13:00,71.0,64.0,29.83,NE,42,3.0,9.0,79,0.00,,,1.10,weatherlink.com 1.10,2013-06-30 23:13:00,
2013-06-30 19:28:00,70.8,64.0,29.83,NE,43,3.0,9.0,80,0.00,,,1.10,weatherlink.com 1.10,2013-06-30 23:28:00,
2013-06-30 19:45:00,70.8,64.0,29.84,ENE,59,2.0,7.0,79,0.00,,,1.10,weatherlink.com 1.10,2013-06-30 23:45:00,
2013-06-30 19:59:00,70.7,64.0,29.84,NE,52,3.0,6.0,79,0.00,,,1.10,weatherlink.com 1.10,2013-06-30 23:59:00,
2013-06-30 20:14:00,70.6,64.0,29.85,NE,40,1.0,5.0,79,0.00,,,1.10,weatherlink.com 1.10,2013-07-01 00:14:00,
2013-06-30 20:29:00,70.4,64.0,29.85,NE,40,3.0,4.0,80,0.00,,,1.10,weatherlink.com 1.10,2013-07-01 00:29:00,
2013-06-30 20:45:00,70.1,64.0,29.85,NE,49,2.0,5.0,80,0.00,,,1.10,weatherlink.com 1.10,2013-07-01 00:45:00,
2013-06-30 21:00:00,69.8,63.0,29.86,NE,47,3.0,5.0,80,0.00,,,1.10,weatherlink.com 1.10,2013-07-01 01:00:00,
2013-06-30 21:15:00,69.5,63.0,29.86,NE,44,2.0,5.0,80,0.00,,,1.10,weatherlink.com 1.10,2013-07-01 01:15:00,
2013-06-30 21:30:00,69.3,63.0,29.86,NE,46,1.0,4.0,81,0.00,,,1.10,weatherlink.com 1.10,2013-07-01 01:30:00,
2013-06-30 21:46:00,68.8,64.0,29.86,NE,47,3.0,4.0,83,0.00,,,1.10,weatherlink.com 1.10,2013-07-01 01:46:00,
2013-06-30 22:01:00,68.3,63.0,29.87,NE,47,1.0,4.0,84,0.00,,,1.10,weatherlink.com 1.10,2013-07-01 02:01:00,
2013-06-30 22:16:00,68.1,63.0,29.87,ENE,63,5.0,8.0,83,0.00,,,1.10,weatherlink.com 1.10,2013-07-01 02:16:00,
2013-06-30 22:32:00,68.1,63.0,29.88,ENE,73,4.0,9.0,83,0.00,,,1.10,weatherlink.com 1.10,2013-07-01 02:32:00,
2013-06-30 22:48:00,67.9,63.0,29.88,ENE,63,4.0,9.0,84,0.00,,,1.10,weatherlink.com 1.10,2013-07-01 02:48:00,
2013-06-30 23:03:00,67.9,63.0,29.88,NE,42,3.0,7.0,85,0.01,,,1.11,weatherlink.com 1.10,2013-07-01 03:03:00,
2013-06-30 23:18:00,67.4,63.0,29.88,NE,42,0.0,2.0,86,0.01,,,1.11,weatherlink.com 1.10,2013-07-01 03:18:00,
2013-06-30 23:33:00,66.8,63.0,29.89,NE,42,0.0,1.0,88,0.01,,,1.11,weatherlink.com 1.10,2013-07-01 03:33:00,
2013-06-30 23:48:00,66.4,64.0,29.89,NE,42,0.0,0.0,90,0.01,,,1.11,weatherlink.com 1.10,2013-07-01 03:48:00,